Simultaneous Nadir Overpasses (SNOs) Predictions

Prediction of SNOs between GOES-14 and NOAA-20 Satellite Orbit:

Table of predicted SNOs for the next 14.0 days since TLE Epoch: 1/24/2020
Index Date Time (GOES-14) GOES-14 Lat,Lon NOAA-20 Lat,Lon Distance(km) Time Diff (sec)
1 01/25/2020 20:23:33 -0.02,-104.06 -0.06,-104.30 27.52 80
2 01/26/2020 20:04:49 -0.02,-104.06 0.92, -99.76 488.88 80
3 01/28/2020 08:23:59 0.01,-104.31 0.16,-105.06 84.48 80
4 01/29/2020 08:07:55 0.01,-104.31 -0.83,-100.52 432.10 80
5 01/30/2020 20:29:51 -0.01,-104.07 -0.42,-105.81 199.06 80
6 01/31/2020 20:08:28 -0.01,-104.07 0.63,-101.29 317.36 80
7 02/02/2020 08:30:17 0.01,-104.32 0.52,-106.57 256.17 80
8 02/03/2020 08:14:13 0.00,-104.32 -0.53,-102.04 260.34 80
9 02/04/2020 20:36:10 0.00,-104.08 -0.71,-107.34 370.76 80
10 02/05/2020 20:14:45 0.00,-104.08 0.27,-102.80 145.15 80
11 02/07/2020 08:36:36 -0.01,-104.32 0.81,-108.09 429.72 80




NCC Satellite Simultaneous Nadir Overpasses (SNOs) Prediction Service
